N5ZPR Weather Reports


Display with metric or nautical units.
time (UTC)temp
F
wind
direction
speed
MPH
gust
MPH
rain 1hr
in
rain 24hr
in
rain mn
in
humidity
%
barometer
mb
20260902194004 97 16 8.0 13.0 0.00 0.00 0.00 40 1010.9
20260902193004 98 44 3.0 15.0 0.00 0.00 0.00 41 1011.1
20260902192004 98 11 9.0 18.0 0.00 0.00 0.00 40 1011.5
20260902190004 97 51 7.0 10.0 0.00 0.00 0.00 41 1011.5
20260902184003 97 20 9.0 15.0 0.00 0.00 0.00 44 1012.3
20260902183003 96 6 4.0 12.0 0.00 0.00 0.00 43 1012.3
20260902182004 96 133 3.0 8.0 0.00 0.00 0.00 44 1012.3
20260902181004 95 358 5.0 13.0 0.00 0.00 0.00 44 1012.5
20260902180006 95 126 2.0 7.0 0.00 0.00 0.00 44 1013.6
20260902175004 95 38 3.0 9.0 0.00 0.00 0.00 44 1013.6
20260902174003 95 57 1.0 8.0 0.00 0.00 0.00 47 1013.6
20260902173003 94 9 3.0 9.0 0.00 0.00 0.00 47 1013.6
20260902172011 94 55 2.0 8.0 0.00 0.00 0.00 48 1013.6
20260902171004 93 23 4.0 12.0 0.00 0.00 0.00 49 1013.6
20260902170003 93 342 3.0 9.0 0.00 0.00 0.00 48 1013.6
20260902164003 92 45 3.0 8.0 0.00 0.00 0.00 49 1013.9
20260902163003 92 16 3.0 8.0 0.00 0.00 0.00 49 1013.9
20260902162004 93 36 3.0 8.0 0.00 0.00 0.00 49 1013.9
20260902161004 92 129 2.0 6.0 0.00 0.00 0.00 50 1013.9
20260902160006 91 115 3.0 6.0 0.00 0.00 0.00 50 1013.9
20260902155003 91 44 1.0 6.0 0.00 0.00 0.00 53 1013.9
20260902154003 89 111 2.0 6.0 0.00 0.00 0.00 56 1013.9
20260902153004 89 26 2.0 6.0 0.00 0.00 0.00 57 1013.9
20260902152003 88 39 2.0 5.0 0.00 0.00 0.00 58 1013.9
20260902150003 87 35 2.0 6.0 0.00 0.00 0.00 62 1013.9
20260902145003 86 36 2.0 6.0 0.00 0.00 0.00 63 1013.9
20260902144003 85 40 3.0 7.0 0.00 0.00 0.00 64 1013.8
20260902143004 85 74 1.0 5.0 0.00 0.00 0.00 66 1013.9
20260902142003 83 234 2.0 6.0 0.00 0.00 0.00 69 1013.9
20260902141003 83 0 2.0 6.0 0.00 0.00 0.00 69 1013.8
20260902140003 82 0 2.0 6.0 0.00 0.00 0.00 68 1013.8
20260902135004 83 0 2.0 5.0 0.00 0.00 0.00 69 1013.8
20260902132003 81 0 1.0 5.0 0.00 0.00 0.00 73 1013.3
20260902131003 81 0 0.0 3.0 0.00 0.00 0.00 72 1013.3
20260902130003 80 0 2.0 3.0 0.00 0.00 0.00 74 1013.3
20260902125003 78 0 0.0 2.0 0.00 0.00 0.00 76 1013.3
20260902124004 78 0 0.0 2.0 0.00 0.00 0.00 77 1013.2
20260902123004 78 0 0.0 3.0 0.00 0.00 0.00 77 1013.2
20260902121003 78 0 0.0 3.0 0.00 0.00 0.00 76 1013.2
20260902120003 78 0 0.0 3.0 0.00 0.00 0.00 77 1013.2
20260902115004 78 0 0.0 1.0 0.00 0.00 0.00 77 1013.2
20260902114003 78 0 0.0 0.0 0.00 0.00 0.00 76 1013.2
20260902112003 79 0 0.0 0.0 0.00 0.00 0.00 74 1013.1
20260902111003 79 0 0.0 1.0 0.00 0.00 0.00 74 1013.1
20260902110005 79 0 0.0 0.0 0.00 0.00 0.00 73 1013.1
20260902105004 80 0 0.0 0.0 0.00 0.00 0.00 72 1013.1
20260902104003 80 0 0.0 2.0 0.00 0.00 0.00 72 1013.1
20260902103004 80 0 0.0 1.0 0.00 0.00 0.00 73 1013.1
20260902102003 80 0 0.0 1.0 0.00 0.00 0.00 71 1012.9
20260902101003 80 0 0.0 3.0 0.00 0.00 0.00 72 1013.0
20260902100003 79 0 0.0 0.0 0.00 0.00 0.00 74 1013.0
20260902095004 79 0 0.0 0.0 0.00 0.00 0.00 73 1013.0
20260902094004 79 0 0.0 0.0 0.00 0.00 0.00 73 1013.0
20260902093004 80 0 0.0 0.0 0.00 0.00 0.00 72 1013.0
20260902092003 80 0 0.0 0.0 0.00 0.00 0.00 71 1013.0
20260902091003 81 0 0.0 0.0 0.00 0.00 0.00 70 1013.0
20260902090004 81 0 0.0 1.0 0.00 0.00 0.00 69 1012.9
20260902085003 82 0 0.0 2.0 0.00 0.00 0.00 68 1013.0
20260902084003 82 0 0.0 2.0 0.00 0.00 0.00 68 1013.0
20260902083004 82 0 1.0 3.0 0.00 0.00 0.00 67 1013.0
20260902082003 82 0 1.0 3.0 0.00 0.00 0.00 67 1013.1
20260902081004 83 0 2.0 5.0 0.00 0.00 0.00 66 1013.1
20260902080003 83 0 1.0 3.0 0.00 0.00 0.00 65 1013.1
20260902075003 83 0 0.0 6.0 0.00 0.00 0.00 64 1013.1
20260902074004 84 0 2.0 8.0 0.00 0.00 0.00 64 1013.1
20260902073003 84 0 1.0 3.0 0.00 0.00 0.00 63 1013.1
20260902072003 85 0 0.0 3.0 0.00 0.00 0.00 62 1013.1
20260902071003 85 0 1.0 5.0 0.00 0.00 0.00 61 1013.1
20260902065004 85 0 2.0 6.0 0.00 0.00 0.00 62 1013.0
20260902064003 85 0 2.0 7.0 0.00 0.00 0.00 62 1013.0
20260902063004 85 0 2.0 5.0 0.00 0.00 0.00 62 1013.0
20260902062003 85 0 1.0 5.0 0.00 0.00 0.00 62 1013.0
20260902061003 85 0 2.0 5.0 0.00 0.00 0.00 62 1013.0
20260902060003 85 0 1.0 5.0 0.00 0.00 0.00 62 1012.8
20260902054004 85 0 2.0 7.0 0.00 0.00 0.00 61 1012.7
20260902052004 86 0 1.0 5.0 0.00 0.00 0.00 60 1012.6
20260902051003 86 0 2.0 5.0 0.00 0.00 0.00 59 1012.2
20260902045003 87 127 2.0 7.0 0.00 0.00 0.00 58 1012.2
20260902044004 87 154 2.0 7.0 0.00 0.00 0.00 56 1012.2
20260902043004 88 142 2.0 9.0 0.00 0.00 0.00 56 1012.2
20260902042003 88 114 4.0 12.0 0.00 0.00 0.00 55 1012.2
20260902041003 88 110 7.0 12.0 0.00 0.00 0.00 54 1012.2
20260902034003 89 111 0.0 1.0 0.00 0.00 0.00 52 1012.2
20260902032003 90 111 0.0 2.0 0.00 0.00 0.00 51 1012.2
20260902031004 91 111 1.0 3.0 0.00 0.00 0.00 50 1011.2
20260902030004 91 115 1.0 3.0 0.00 0.00 0.00 49 1011.2
20260902025004 91 119 1.0 3.0 0.00 0.00 0.00 49 1011.2
20260902023003 93 179 2.0 3.0 0.00 0.00 0.00 47 1011.2
20260902022004 92 169 0.0 1.0 0.00 0.00 0.00 47 1011.2
20260902021004 93 169 0.0 3.0 0.00 0.00 0.00 46 1010.7
20260902020003 92 118 1.0 3.0 0.00 0.00 0.00 46 1010.7
20260902015004 93 120 0.0 5.0 0.00 0.00 0.00 45 1010.7
20260902013003 94 125 1.0 5.0 0.00 0.00 0.00 44 1010.7
20260902012004 94 120 3.0 6.0 0.00 0.00 0.00 43 1010.7
20260902011003 94 103 1.0 5.0 0.00 0.00 0.00 43 1010.6
20260902005003 95 115 2.0 5.0 0.00 0.00 0.00 42 1010.6
20260902004004 96 154 2.0 7.0 0.00 0.00 0.00 42 1010.6
20260902002004 96 133 2.0 7.0 0.00 0.00 0.00 41 1010.8
20260902001003 97 142 2.0 9.0 0.00 0.00 0.00 41 1010.8
20260901235003 98 100 2.0 5.0 0.00 0.00 0.00 39 1010.9
20260901234004 98 145 2.0 6.0 0.00 0.00 0.00 39 1010.8
20260901233003 99 59 3.0 7.0 0.00 0.00 0.00 38 1010.8
20260901232003 98 154 2.0 8.0 0.00 0.00 0.00 39 1010.8
20260901231004 99 59 2.0 10.0 0.00 0.00 0.00 38 1010.8
20260901230003 99 199 3.0 8.0 0.00 0.00 0.00 38 1010.8
20260901225004 100 122 3.0 8.0 0.00 0.00 0.00 37 1010.8
20260901224003 99 37 3.0 7.0 0.00 0.00 0.00 37 1011.0
20260901221003 100 156 3.0 6.0 0.00 0.00 0.00 37 1011.0
20260901220003 100 126 3.0 8.0 0.00 0.00 0.00 37 1011.2
20260901215003 101 154 2.0 6.0 0.00 0.00 0.00 36 1011.2
20260901213003 99 149 2.0 6.0 0.00 0.00 0.00 37 1011.6
20260901211003 100 43 3.0 8.0 0.00 0.00 0.00 37 1011.6
20260901205004 100 103 3.0 10.0 0.00 0.00 0.00 36 1011.6
20260901204003 100 93 3.0 10.0 0.00 0.00 0.00 37 1013.1
20260901203004 99 83 3.0 9.0 0.00 0.00 0.00 37 1013.1
20260901202004 99 48 3.0 8.0 0.00 0.00 0.00 38 1013.1
20260901200004 98 129 4.0 12.0 0.00 0.00 0.00 39 1013.1
20260901195003 99 45 2.0 8.0 0.00 0.00 0.00 38 1013.1